Location: Cactus School
(34.5700°N, 118.0931°W)
Time: 10:52:57
(UTC-07:00)

Transit 2A Rocket - All Passes

Search period start: 23 April 2024 00:00
Search period end: 03 May 2024 00:00
Orbit: 586 x 907 km, 66.7° (Epoch: 23 April)

Date Brightness Start Highest point End Pass type
(mag) Time Alt. Az. Time Alt. Az. Time Alt. Az.
23 Apr - 10:41:20 10° S 10:45:19 35° ESE 10:49:34 10° NE daylight
23 Apr - 12:24:33 10° W 12:27:53 20° NW 12:31:26 10° N daylight
23 Apr - 19:27:07 10° N 19:31:07 19° NE 19:35:15 10° E daylight
23 Apr - 21:08:18 10° NNW 21:14:03 67° WSW 21:20:02 10° SSE visible
24 Apr - 09:58:46 10° SSE 10:01:39 17° ESE 10:04:39 10° ENE daylight
24 Apr - 11:39:34 10° SW 11:43:41 37° WNW 11:48:07 10° N daylight
24 Apr - 18:45:01 10° NNE 18:46:43 11° NE 18:48:26 10° ENE daylight
24 Apr - 20:24:19 10° NNW 20:30:06 71° ENE 20:36:08 10° SSE visible
24 Apr - 22:08:50 10° WNW 22:12:04 15° WSW 22:15:22 10° SW visible
25 Apr - 10:55:15 10° SSW 10:59:37 76° WNW 11:04:24 10° NNE daylight
25 Apr - 19:40:37 10° NNW 19:46:03 41° ENE 19:51:41 10° SE daylight
25 Apr - 21:23:28 10° NW 21:28:23 28° WSW 21:33:24 10° SSW visible
26 Apr - 10:11:30 10° S 10:15:45 51° ESE 10:20:20 10° NE daylight
26 Apr - 11:55:52 10° W 11:58:36 15° NW 12:01:27 10° NNW daylight
26 Apr - 18:57:13 10° N 19:01:51 24° NE 19:06:38 10° ESE daylight
26 Apr - 20:38:57 10° NW 20:44:35 50° WSW 20:50:23 10° S visible
27 Apr - 09:28:27 10° SSE 09:32:01 24° ESE 09:35:47 10° NE daylight
27 Apr - 11:10:27 10° WSW 11:14:18 28° NW 11:18:26 10° N daylight
27 Apr - 18:14:21 10° NNE 18:17:30 15° NE 18:20:42 10° E daylight
27 Apr - 19:54:49 10° NNW 20:00:40 89° WSW 20:06:44 10° SSE visible
27 Apr - 21:41:04 10° W 21:42:28 11° WSW 21:43:50 10° WSW visible
28 Apr - 08:46:52 10° ESE 08:48:24 12° ESE 08:49:58 10° E daylight
28 Apr - 10:25:49 10° SW 10:30:09 53° WNW 10:34:52 10° NNE daylight
28 Apr - 19:10:58 10° NNW 19:16:39 53° ENE 19:22:32 10° SE daylight
28 Apr - 20:54:30 10° WNW 20:58:48 21° WSW 21:03:12 10° SSW visible
29 Apr - 09:41:47 10° SSW 09:46:10 74° ESE 09:50:57 10° NNE daylight
29 Apr - 11:27:36 10° WNW 11:29:19 12° NW 11:31:05 10° NNW daylight
29 Apr - 18:27:23 10° N 18:32:30 31° NE 18:37:47 10° ESE daylight
29 Apr - 20:09:39 10° NW 20:15:02 38° WSW 20:20:34 10° S visible
30 Apr - 08:58:21 10° S 09:02:21 35° ESE 09:06:38 10° NE daylight
30 Apr - 10:41:27 10° WSW 10:44:55 21° NW 10:48:36 10° N daylight
30 Apr - 17:44:12 10° N 17:48:13 19° NE 17:52:20 10° E daylight
30 Apr - 19:25:21 10° NNW 19:31:10 69° WSW 19:37:11 10° SSE daylight
01 May - 08:15:49 10° SE 08:18:41 17° ESE 08:21:40 10° ENE daylight
01 May - 09:56:29 10° SW 10:00:41 39° WNW 10:05:13 10° NNE daylight
01 May - 17:02:07 10° NNE 17:03:45 11° NE 17:05:25 10° ENE daylight
01 May - 18:41:21 10° NNW 18:47:11 69° ENE 18:53:13 10° SE daylight
01 May - 20:25:45 10° WNW 20:29:09 16° WSW 20:32:37 10° SW visible
02 May - 09:12:10 10° SSW 09:16:36 79° WNW 09:21:27 10° NNE daylight
02 May - 17:57:37 10° N 18:03:05 40° ENE 18:08:43 10° SE daylight
02 May - 19:40:27 10° NW 19:45:26 29° WSW 19:50:32 10° SSW daylight
